| time (UTC) | temp F | wind direction | speed MPH | gust MPH | rain 1hr in | rain 24hr in | rain mn in | humidity % | barometer mb |
| 20260507051504 | 58 | 178 | 0.0 | 2.0 | 0.05 | 0.28 | 0.28 | 83 | 1015.3 |
| 20260507050507 | 58 | 174 | 1.0 | 3.0 | 0.04 | 0.27 | 0.27 | 83 | 1015.4 |
| 20260507044507 | 58 | 185 | 2.0 | 5.0 | 0.02 | 0.24 | 0.24 | 84 | 1015.5 |
| 20260507044008 | 58 | 203 | 2.0 | 3.0 | 0.02 | 0.24 | 0.24 | 84 | 1015.6 |
| 20260507043507 | 58 | 203 | 1.0 | 3.0 | 0.02 | 0.23 | 0.23 | 84 | 1015.4 |
| 20260507043007 | 58 | 131 | 0.0 | 1.0 | 0.02 | 0.23 | 0.23 | 84 | 1014.8 |
| 20260507042506 | 58 | 148 | 1.0 | 3.0 | 0.03 | 0.23 | 0.23 | 84 | 1014.5 |
| 20260507042007 | 58 | 161 | 2.0 | 3.0 | 0.05 | 0.23 | 0.23 | 85 | 1014.4 |
| 20260507041506 | 58 | 151 | 1.0 | 3.0 | 0.05 | 0.23 | 0.23 | 85 | 1014.4 |
| 20260507041006 | 59 | 206 | 0.0 | 0.0 | 0.06 | 0.23 | 0.23 | 85 | 1014.5 |
| 20260507040005 | 59 | 206 | 0.0 | 0.0 | 0.08 | 0.23 | 0.23 | 85 | 1014.6 |
| 20260507035507 | 58 | 206 | 0.0 | 0.0 | 0.09 | 0.23 | 0.23 | 85 | 1014.8 |
| 20260507034505 | 58 | 206 | 0.0 | 2.0 | 0.09 | 0.22 | 0.22 | 86 | 1015.0 |
| 20260507034007 | 58 | 206 | 1.0 | 2.0 | 0.09 | 0.22 | 0.22 | 86 | 1015.0 |
| 20260507033506 | 58 | 182 | 1.0 | 2.0 | 0.09 | 0.21 | 0.21 | 86 | 1014.7 |
| 20260507033011 | 58 | 217 | 1.0 | 3.0 | 0.09 | 0.21 | 0.21 | 86 | 1015.1 |
| 20260507032008 | 58 | 202 | 2.0 | 5.0 | 0.07 | 0.18 | 0.18 | 86 | 1015.1 |
| 20260507031505 | 58 | 193 | 2.0 | 6.0 | 0.07 | 0.18 | 0.18 | 86 | 1015.1 |
| 20260507031006 | 58 | 195 | 2.0 | 7.0 | 0.06 | 0.17 | 0.17 | 86 | 1015.1 |
| 20260507030008 | 58 | 200 | 4.0 | 7.0 | 0.04 | 0.15 | 0.15 | 86 | 1015.2 |
| 20260507025006 | 58 | 212 | 1.0 | 3.0 | 0.03 | 0.13 | 0.13 | 86 | 1014.8 |
| 20260507024507 | 58 | 212 | 1.0 | 3.0 | 0.03 | 0.13 | 0.13 | 86 | 1014.7 |
| 20260507024011 | 58 | 217 | 2.0 | 3.0 | 0.03 | 0.13 | 0.13 | 87 | 1014.6 |
| 20260507023507 | 58 | 204 | 2.0 | 3.0 | 0.03 | 0.12 | 0.12 | 87 | 1014.4 |
| 20260507023007 | 58 | 211 | 1.0 | 3.0 | 0.04 | 0.12 | 0.12 | 87 | 1014.0 |
| 20260507022506 | 58 | 173 | 0.0 | 2.0 | 0.05 | 0.12 | 0.12 | 87 | 1013.7 |
| 20260507022006 | 59 | 173 | 0.0 | 0.0 | 0.05 | 0.11 | 0.11 | 87 | 1013.5 |
| 20260507021011 | 59 | 173 | 0.0 | 1.0 | 0.07 | 0.11 | 0.11 | 87 | 1013.3 |
| 20260507020507 | 59 | 71 | 0.0 | 1.0 | 0.08 | 0.11 | 0.11 | 87 | 1013.3 |
| 20260507020015 | 59 | 40 | 0.0 | 2.0 | 0.09 | 0.11 | 0.11 | 87 | 1013.3 |
| 20260507015508 | 59 | 34 | 2.0 | 3.0 | 0.09 | 0.11 | 0.11 | 87 | 1013.3 |
| 20260507014508 | 59 | 133 | 0.0 | 2.0 | 0.09 | 0.10 | 0.10 | 87 | 1013.7 |
| 20260507014007 | 59 | 147 | 0.0 | 3.0 | 0.08 | 0.09 | 0.09 | 87 | 1013.8 |
| 20260507013510 | 59 | 179 | 1.0 | 7.0 | 0.07 | 0.09 | 0.09 | 87 | 1014.1 |
| 20260507013006 | 59 | 207 | 3.0 | 7.0 | 0.07 | 0.08 | 0.08 | 87 | 1014.3 |
| 20260507012006 | 59 | 206 | 3.0 | 7.0 | 0.06 | 0.06 | 0.06 | 87 | 1014.4 |
| 20260507011506 | 59 | 196 | 3.0 | 7.0 | 0.05 | 0.06 | 0.06 | 88 | 1014.4 |
| 20260507010006 | 59 | 192 | 0.0 | 1.0 | 0.02 | 0.02 | 0.02 | 88 | 1014.0 |
| 20260507005511 | 59 | 194 | 0.0 | 3.0 | 0.01 | 0.02 | 0.02 | 88 | 1014.0 |
| 20260507005007 | 59 | 197 | 1.0 | 3.0 | 0.01 | 0.02 | 0.02 | 88 | 1014.0 |
| 20260507004506 | 59 | 193 | 1.0 | 3.0 | 0.02 | 0.02 | 0.02 | 88 | 1014.0 |
| 20260507004007 | 59 | 206 | 1.0 | 5.0 | 0.02 | 0.02 | 0.02 | 88 | 1014.0 |
| 20260507003507 | 59 | 211 | 2.0 | 8.0 | 0.02 | 0.02 | 0.02 | 88 | 1014.1 |
| 20260507002507 | 59 | 195 | 5.0 | 12.0 | 0.01 | 0.01 | 0.01 | 88 | 1014.1 |
| 20260507002006 | 59 | 205 | 2.0 | 8.0 | 0.01 | 0.01 | 0.01 | 88 | 1014.0 |
| 20260507001507 | 59 | 201 | 2.0 | 5.0 | 0.01 | 0.01 | 0.01 | 88 | 1014.0 |
| 20260507001005 | 59 | 203 | 1.0 | 5.0 | 0.01 | 0.01 | 0.01 | 88 | 1014.0 |
| 20260507000511 | 59 | 200 | 1.0 | 5.0 | 0.01 | 0.01 | 0.01 | 88 | 1013.9 |
| 20260507000007 | 59 | 233 | 1.0 | 3.0 | 0.01 | 0.01 | 0.01 | 88 | 1013.8 |
| 20260506235505 | 59 | 203 | 2.0 | 3.0 | 0.01 | 0.01 | 0.01 | 88 | 1013.6 |
| 20260506235007 | 59 | 195 | 1.0 | 5.0 | 0.01 | 0.01 | 0.01 | 88 | 1013.5 |
| 20260506234507 | 59 | 190 | 1.0 | 3.0 | 0.00 | 0.00 | 0.00 | 88 | 1013.6 |
| 20260506234007 | 59 | 209 | 2.0 | 3.0 | 0.00 | 0.00 | 0.00 | 88 | 1013.4 |
| 20260506233507 | 59 | 176 | 1.0 | 2.0 | 0.00 | 0.00 | 0.00 | 88 | 1013.2 |
| 20260506233007 | 59 | 195 | 1.0 | 3.0 | 0.00 | 0.00 | 0.00 | 88 | 1013.4 |
| 20260506232505 | 59 | 168 | 2.0 | 5.0 | 0.00 | 0.00 | 0.00 | 88 | 1013.5 |
| 20260506232006 | 59 | 181 | 2.0 | 5.0 | 0.00 | 0.00 | 0.00 | 88 | 1013.6 |
| 20260506231506 | 60 | 201 | 2.0 | 5.0 | 0.00 | 0.00 | 0.00 | 88 | 1013.7 |
| 20260506231007 | 59 | 211 | 2.0 | 3.0 | 0.00 | 0.00 | 0.00 | 88 | 1013.7 |
| 20260506230507 | 60 | 175 | 1.0 | 7.0 | 0.00 | 0.00 | 0.00 | 88 | 1013.7 |
| 20260506225506 | 60 | 189 | 1.0 | 3.0 | 0.00 | 0.00 | 0.00 | 88 | 1013.8 |
| 20260506225005 | 60 | 179 | 2.0 | 5.0 | 0.00 | 0.00 | 0.00 | 88 | 1013.9 |
| 20260506224007 | 60 | 183 | 2.0 | 5.0 | 0.00 | 0.00 | 0.00 | 88 | 1014.0 |
| 20260506223507 | 60 | 212 | 2.0 | 5.0 | 0.00 | 0.00 | 0.00 | 88 | 1014.0 |
| 20260506223006 | 60 | 212 | 1.0 | 5.0 | 0.00 | 0.00 | 0.00 | 88 | 1014.0 |
| 20260506222506 | 60 | 192 | 4.0 | 10.0 | 0.00 | 0.00 | 0.00 | 88 | 1014.2 |
| 20260506222008 | 60 | 200 | 4.0 | 10.0 | 0.00 | 0.00 | 0.00 | 88 | 1014.2 |
| 20260506221505 | 60 | 203 | 7.0 | 10.0 | 0.00 | 0.00 | 0.00 | 88 | 1014.1 |
| 20260506221007 | 60 | 196 | 8.0 | 13.0 | 0.00 | 0.00 | 0.00 | 88 | 1014.0 |
| 20260506220506 | 60 | 209 | 6.0 | 12.0 | 0.00 | 0.00 | 0.00 | 88 | 1014.0 |
| 20260506220006 | 60 | 189 | 4.0 | 12.0 | 0.00 | 0.00 | 0.00 | 88 | 1013.9 |
| 20260506215007 | 60 | 204 | 6.0 | 12.0 | 0.00 | 0.00 | 0.00 | 88 | 1014.1 |
| 20260506214505 | 60 | 207 | 7.0 | 15.0 | 0.00 | 0.00 | 0.00 | 88 | 1014.1 |
| 20260506214011 | 60 | 206 | 8.0 | 14.0 | 0.00 | 0.00 | 0.00 | 88 | 1014.1 |
| 20260506213509 | 61 | 206 | 7.0 | 14.0 | 0.00 | 0.00 | 0.00 | 88 | 1014.0 |
| 20260506213007 | 61 | 214 | 9.0 | 14.0 | 0.00 | 0.00 | 0.00 | 88 | 1014.0 |
| 20260506212506 | 61 | 198 | 7.0 | 12.0 | 0.00 | 0.00 | 0.00 | 88 | 1014.1 |
| 20260506212007 | 61 | 211 | 9.0 | 14.0 | 0.00 | 0.00 | 0.00 | 88 | 1014.1 |
| 20260506211505 | 61 | 205 | 8.0 | 16.0 | 0.00 | 0.00 | 0.00 | 88 | 1014.1 |
| 20260506211011 | 61 | 196 | 9.0 | 15.0 | 0.00 | 0.00 | 0.00 | 88 | 1014.0 |
| 20260506210505 | 61 | 199 | 9.0 | 13.0 | 0.00 | 0.00 | 0.00 | 88 | 1014.0 |
| 20260506210007 | 61 | 196 | 8.0 | 15.0 | 0.00 | 0.00 | 0.00 | 88 | 1014.0 |
| 20260506205506 | 61 | 206 | 7.0 | 15.0 | 0.00 | 0.00 | 0.00 | 88 | 1014.0 |
| 20260506205007 | 61 | 208 | 7.0 | 14.0 | 0.00 | 0.00 | 0.00 | 88 | 1013.9 |
| 20260506204507 | 61 | 196 | 9.0 | 13.0 | 0.00 | 0.00 | 0.00 | 88 | 1013.8 |
| 20260506203006 | 61 | 201 | 7.0 | 13.0 | 0.00 | 0.00 | 0.00 | 88 | 1013.7 |
| 20260506202505 | 61 | 198 | 6.0 | 13.0 | 0.00 | 0.00 | 0.00 | 88 | 1013.6 |
| 20260506201507 | 61 | 200 | 7.0 | 12.0 | 0.00 | 0.00 | 0.00 | 87 | 1013.7 |
| 20260506201008 | 60 | 200 | 7.0 | 14.0 | 0.00 | 0.00 | 0.00 | 88 | 1013.7 |
| 20260506200507 | 60 | 212 | 6.0 | 14.0 | 0.00 | 0.00 | 0.00 | 88 | 1013.6 |
| 20260506200010 | 60 | 205 | 5.0 | 12.0 | 0.00 | 0.00 | 0.00 | 88 | 1013.5 |
| 20260506195506 | 60 | 209 | 5.0 | 8.0 | 0.00 | 0.00 | 0.00 | 88 | 1013.3 |
| 20260506195007 | 60 | 208 | 5.0 | 16.0 | 0.00 | 0.00 | 0.00 | 87 | 1013.2 |
| 20260506194007 | 60 | 199 | 6.0 | 12.0 | 0.00 | 0.00 | 0.00 | 87 | 1013.2 |
| 20260506193506 | 60 | 202 | 6.0 | 12.0 | 0.00 | 0.00 | 0.00 | 87 | 1013.2 |
| 20260506193007 | 60 | 193 | 7.0 | 12.0 | 0.00 | 0.00 | 0.00 | 87 | 1013.1 |
| 20260506192506 | 60 | 196 | 6.0 | 13.0 | 0.00 | 0.00 | 0.00 | 87 | 1013.1 |
| 20260506192007 | 60 | 199 | 7.0 | 12.0 | 0.00 | 0.00 | 0.00 | 87 | 1013.1 |
| 20260506191007 | 60 | 206 | 7.0 | 14.0 | 0.00 | 0.00 | 0.00 | 87 | 1013.1 |
| 20260506190508 | 60 | 188 | 6.0 | 12.0 | 0.00 | 0.00 | 0.00 | 87 | 1013.0 |
| 20260506190010 | 60 | 179 | 5.0 | 12.0 | 0.00 | 0.00 | 0.00 | 87 | 1013.1 |
| 20260506185507 | 60 | 183 | 5.0 | 12.0 | 0.00 | 0.00 | 0.00 | 86 | 1013.0 |
| 20260506185011 | 60 | 201 | 6.0 | 12.0 | 0.00 | 0.00 | 0.00 | 86 | 1012.8 |
| 20260506184504 | 60 | 206 | 5.0 | 12.0 | 0.00 | 0.00 | 0.00 | 86 | 1012.9 |
| 20260506184007 | 61 | 181 | 6.0 | 12.0 | 0.00 | 0.00 | 0.00 | 86 | 1012.9 |
| 20260506183512 | 61 | 187 | 6.0 | 12.0 | 0.00 | 0.00 | 0.00 | 86 | 1012.9 |
| 20260506183013 | 61 | 199 | 9.0 | 15.0 | 0.00 | 0.00 | 0.00 | 86 | 1012.9 |
| 20260506182507 | 61 | 190 | 5.0 | 12.0 | 0.00 | 0.00 | 0.00 | 86 | 1012.9 |
| 20260506182007 | 61 | 209 | 7.0 | 13.0 | 0.00 | 0.00 | 0.00 | 86 | 1012.9 |
| 20260506181007 | 61 | 190 | 6.0 | 13.0 | 0.00 | 0.00 | 0.00 | 86 | 1012.9 |
| 20260506180008 | 61 | 191 | 9.0 | 17.0 | 0.00 | 0.00 | 0.00 | 86 | 1012.8 |
| 20260506174006 | 61 | 196 | 9.0 | 16.0 | 0.00 | 0.00 | 0.00 | 85 | 1012.9 |
| 20260506173507 | 61 | 192 | 7.0 | 14.0 | 0.00 | 0.00 | 0.00 | 85 | 1013.0 |
| 20260506173007 | 62 | 197 | 7.0 | 16.0 | 0.00 | 0.00 | 0.00 | 85 | 1012.9 |
| 20260506172505 | 62 | 205 | 9.0 | 15.0 | 0.00 | 0.00 | 0.00 | 85 | 1012.9 |
| 20260506172007 | 62 | 203 | 7.0 | 14.0 | 0.00 | 0.00 | 0.00 | 85 | 1012.9 |
| 20260506171506 | 62 | 187 | 5.0 | 13.0 | 0.00 | 0.00 | 0.00 | 85 | 1012.9 |
| 20260506171007 | 62 | 203 | 6.0 | 15.0 | 0.00 | 0.00 | 0.00 | 85 | 1012.8 |
| 20260506170506 | 62 | 201 | 5.0 | 12.0 | 0.00 | 0.00 | 0.00 | 85 | 1012.7 |
| 20260506165006 | 62 | 188 | 7.0 | 14.0 | 0.00 | 0.00 | 0.00 | 84 | 1012.6 |
| 20260506164507 | 62 | 184 | 8.0 | 16.0 | 0.00 | 0.00 | 0.00 | 84 | 1012.6 |
| 20260506163506 | 62 | 193 | 7.0 | 13.0 | 0.00 | 0.00 | 0.00 | 84 | 1012.7 |
| 20260506162507 | 63 | 174 | 4.0 | 12.0 | 0.00 | 0.00 | 0.00 | 84 | 1012.7 |
| 20260506162006 | 63 | 191 | 6.0 | 12.0 | 0.00 | 0.00 | 0.00 | 83 | 1012.7 |
| 20260506161506 | 63 | 173 | 6.0 | 15.0 | 0.00 | 0.00 | 0.00 | 83 | 1012.7 |
| 20260506161007 | 63 | 168 | 6.0 | 12.0 | 0.00 | 0.00 | 0.00 | 83 | 1012.9 |
| 20260506160506 | 63 | 186 | 6.0 | 13.0 | 0.00 | 0.00 | 0.00 | 83 | 1012.9 |
| 20260506160005 | 63 | 177 | 5.0 | 13.0 | 0.00 | 0.00 | 0.00 | 82 | 1012.9 |
| 20260506155005 | 63 | 199 | 9.0 | 15.0 | 0.00 | 0.00 | 0.00 | 81 | 1012.9 |
| 20260506154505 | 64 | 167 | 6.0 | 12.0 | 0.00 | 0.00 | 0.00 | 81 | 1012.9 |
| 20260506153516 | 64 | 195 | 8.0 | 16.0 | 0.00 | 0.00 | 0.00 | 81 | 1013.1 |
| 20260506153006 | 64 | 193 | 6.0 | 12.0 | 0.00 | 0.00 | 0.00 | 81 | 1013.0 |
| 20260506152506 | 64 | 208 | 7.0 | 13.0 | 0.00 | 0.00 | 0.00 | 80 | 1013.0 |
| 20260506152008 | 64 | 191 | 6.0 | 12.0 | 0.00 | 0.00 | 0.00 | 80 | 1012.9 |
| 20260506150507 | 65 | 180 | 6.0 | 12.0 | 0.00 | 0.00 | 0.00 | 79 | 1012.8 |
| 20260506150005 | 65 | 198 | 6.0 | 12.0 | 0.00 | 0.00 | 0.00 | 78 | 1012.9 |
| 20260506145506 | 65 | 176 | 7.0 | 13.0 | 0.00 | 0.00 | 0.00 | 78 | 1012.8 |
| 20260506145007 | 65 | 175 | 6.0 | 13.0 | 0.00 | 0.00 | 0.00 | 78 | 1012.8 |
| 20260506144506 | 65 | 173 | 5.0 | 13.0 | 0.00 | 0.00 | 0.00 | 78 | 1012.9 |
| 20260506144005 | 65 | 185 | 7.0 | 12.0 | 0.00 | 0.00 | 0.00 | 78 | 1013.1 |
| 20260506143506 | 65 | 203 | 6.0 | 13.0 | 0.00 | 0.00 | 0.00 | 78 | 1013.1 |
| 20260506143006 | 65 | 191 | 5.0 | 10.0 | 0.00 | 0.00 | 0.00 | 79 | 1013.0 |
| 20260506142507 | 65 | 176 | 4.0 | 9.0 | 0.00 | 0.00 | 0.00 | 79 | 1013.0 |
| 20260506142006 | 65 | 164 | 6.0 | 13.0 | 0.00 | 0.00 | 0.00 | 79 | 1013.0 |
| 20260506141505 | 65 | 190 | 7.0 | 13.0 | 0.00 | 0.00 | 0.00 | 78 | 1013.1 |
| 20260506135506 | 65 | 188 | 6.0 | 14.0 | 0.00 | 0.00 | 0.00 | 78 | 1013.1 |
| 20260506135006 | 65 | 183 | 7.0 | 15.0 | 0.00 | 0.00 | 0.00 | 78 | 1013.1 |
| 20260506134007 | 65 | 163 | 6.0 | 14.0 | 0.00 | 0.00 | 0.00 | 78 | 1013.2 |
| 20260506133506 | 65 | 185 | 7.0 | 15.0 | 0.00 | 0.00 | 0.00 | 78 | 1013.3 |
| 20260506133005 | 65 | 176 | 6.0 | 13.0 | 0.00 | 0.00 | 0.00 | 78 | 1013.3 |
| 20260506132006 | 64 | 192 | 5.0 | 12.0 | 0.00 | 0.00 | 0.00 | 80 | 1013.4 |
| 20260506131505 | 64 | 188 | 8.0 | 15.0 | 0.00 | 0.00 | 0.00 | 80 | 1013.5 |
| 20260506131005 | 64 | 191 | 6.0 | 12.0 | 0.00 | 0.00 | 0.00 | 80 | 1013.5 |
| 20260506130006 | 64 | 185 | 3.0 | 12.0 | 0.00 | 0.00 | 0.00 | 80 | 1013.6 |
| 20260506125507 | 64 | 207 | 6.0 | 14.0 | 0.00 | 0.00 | 0.00 | 80 | 1013.7 |
| 20260506125007 | 64 | 184 | 5.0 | 12.0 | 0.00 | 0.00 | 0.00 | 80 | 1013.7 |
| 20260506124506 | 64 | 190 | 8.0 | 16.0 | 0.00 | 0.00 | 0.00 | 80 | 1013.7 |
| 20260506123508 | 65 | 193 | 6.0 | 12.0 | 0.00 | 0.00 | 0.00 | 80 | 1013.7 |
| 20260506123007 | 65 | 202 | 7.0 | 13.0 | 0.00 | 0.00 | 0.00 | 80 | 1013.7 |
| 20260506121507 | 66 | 188 | 5.0 | 14.0 | 0.00 | 0.00 | 0.00 | 77 | 1013.5 |
| 20260506121005 | 67 | 189 | 6.0 | 14.0 | 0.00 | 0.00 | 0.00 | 76 | 1013.5 |
| 20260506120507 | 67 | 202 | 4.0 | 8.0 | 0.00 | 0.00 | 0.00 | 76 | 1013.5 |
| 20260506120005 | 67 | 199 | 6.0 | 12.0 | 0.00 | 0.00 | 0.00 | 75 | 1013.5 |
| 20260506115507 | 68 | 175 | 6.0 | 10.0 | 0.00 | 0.00 | 0.00 | 74 | 1013.6 |
| 20260506115006 | 68 | 198 | 7.0 | 13.0 | 0.00 | 0.00 | 0.00 | 74 | 1013.6 |
| 20260506114505 | 68 | 205 | 6.0 | 13.0 | 0.00 | 0.00 | 0.00 | 72 | 1013.6 |
| 20260506114007 | 68 | 175 | 7.0 | 13.0 | 0.00 | 0.00 | 0.00 | 71 | 1013.6 |
| 20260506113505 | 69 | 195 | 7.0 | 14.0 | 0.00 | 0.00 | 0.00 | 71 | 1013.6 |
| 20260506113005 | 68 | 196 | 5.0 | 12.0 | 0.00 | 0.00 | 0.00 | 73 | 1013.5 |
| 20260506112505 | 68 | 167 | 5.0 | 12.0 | 0.00 | 0.00 | 0.00 | 72 | 1013.6 |
| 20260506112011 | 68 | 203 | 3.0 | 9.0 | 0.00 | 0.00 | 0.00 | 74 | 1013.6 |
| 20260506111505 | 67 | 175 | 5.0 | 12.0 | 0.00 | 0.00 | 0.00 | 75 | 1013.5 |
| 20260506111007 | 67 | 172 | 3.0 | 9.0 | 0.00 | 0.00 | 0.00 | 76 | 1013.6 |
| 20260506110005 | 66 | 160 | 5.0 | 12.0 | 0.00 | 0.00 | 0.00 | 77 | 1013.7 |
| 20260506105506 | 65 | 175 | 6.0 | 12.0 | 0.00 | 0.00 | 0.00 | 76 | 1013.8 |
| 20260506104505 | 65 | 174 | 5.0 | 12.0 | 0.00 | 0.00 | 0.00 | 77 | 1013.9 |
| 20260506104005 | 65 | 190 | 6.0 | 12.0 | 0.00 | 0.00 | 0.00 | 78 | 1014.0 |
| 20260506103505 | 65 | 171 | 6.0 | 10.0 | 0.00 | 0.00 | 0.00 | 77 | 1014.0 |
| 20260506103005 | 65 | 211 | 6.0 | 10.0 | 0.00 | 0.00 | 0.00 | 78 | 1014.0 |
| 20260506102506 | 65 | 199 | 7.0 | 13.0 | 0.00 | 0.00 | 0.00 | 77 | 1014.1 |
| 20260506102007 | 65 | 199 | 5.0 | 12.0 | 0.00 | 0.00 | 0.00 | 78 | 1014.1 |
| 20260506101007 | 65 | 215 | 6.0 | 13.0 | 0.00 | 0.00 | 0.00 | 76 | 1014.3 |
| 20260506100505 | 65 | 176 | 6.0 | 12.0 | 0.00 | 0.00 | 0.00 | 76 | 1014.2 |
| 20260506100006 | 66 | 195 | 6.0 | 10.0 | 0.00 | 0.00 | 0.00 | 76 | 1014.3 |
| 20260506095505 | 66 | 191 | 6.0 | 9.0 | 0.00 | 0.00 | 0.00 | 75 | 1014.3 |
| 20260506095015 | 66 | 216 | 5.0 | 9.0 | 0.00 | 0.00 | 0.00 | 74 | 1014.3 |
| 20260506094518 | 66 | 184 | 4.0 | 13.0 | 0.00 | 0.00 | 0.00 | 75 | 1014.3 |
| 20260506094005 | 67 | 194 | 6.0 | 13.0 | 0.00 | 0.00 | 0.00 | 73 | 1014.2 |
| 20260506093506 | 67 | 195 | 5.0 | 10.0 | 0.00 | 0.00 | 0.00 | 74 | 1014.2 |
| 20260506093011 | 67 | 181 | 6.0 | 12.0 | 0.00 | 0.00 | 0.00 | 73 | 1014.2 |
| 20260506092507 | 67 | 203 | 5.0 | 12.0 | 0.00 | 0.00 | 0.00 | 74 | 1014.2 |
| 20260506092007 | 67 | 189 | 6.0 | 13.0 | 0.00 | 0.00 | 0.00 | 72 | 1014.2 |
| 20260506091505 | 68 | 202 | 6.0 | 14.0 | 0.00 | 0.00 | 0.00 | 72 | 1014.1 |
| 20260506091006 | 68 | 187 | 6.0 | 14.0 | 0.00 | 0.00 | 0.00 | 71 | 1014.0 |
| 20260506090505 | 68 | 186 | 7.0 | 17.0 | 0.00 | 0.00 | 0.00 | 72 | 1014.0 |
| 20260506090007 | 68 | 172 | 6.0 | 13.0 | 0.00 | 0.00 | 0.00 | 72 | 1014.0 |
| 20260506085506 | 68 | 197 | 6.0 | 12.0 | 0.00 | 0.00 | 0.00 | 71 | 1013.9 |
| 20260506085005 | 68 | 187 | 7.0 | 12.0 | 0.00 | 0.00 | 0.00 | 72 | 1013.9 |
| 20260506084505 | 68 | 213 | 7.0 | 12.0 | 0.00 | 0.00 | 0.00 | 74 | 1013.9 |
| 20260506084005 | 67 | 194 | 6.0 | 12.0 | 0.00 | 0.00 | 0.00 | 73 | 1013.8 |
| 20260506083507 | 67 | 192 | 3.0 | 12.0 | 0.00 | 0.00 | 0.00 | 76 | 1013.8 |
| 20260506083010 | 67 | 191 | 6.0 | 15.0 | 0.00 | 0.00 | 0.00 | 75 | 1013.7 |
| 20260506082505 | 66 | 169 | 7.0 | 13.0 | 0.00 | 0.00 | 0.00 | 76 | 1013.7 |
| 20260506082011 | 66 | 195 | 6.0 | 12.0 | 0.00 | 0.00 | 0.00 | 76 | 1013.7 |
| 20260506081506 | 66 | 217 | 5.0 | 12.0 | 0.00 | 0.00 | 0.00 | 77 | 1013.6 |
| 20260506080507 | 66 | 170 | 6.0 | 13.0 | 0.00 | 0.00 | 0.00 | 77 | 1013.5 |
| 20260506073507 | 64 | 204 | 5.0 | 8.0 | 0.00 | 0.00 | 0.00 | 82 | 1013.6 |
| 20260506073007 | 64 | 191 | 5.0 | 9.0 | 0.00 | 0.00 | 0.00 | 83 | 1013.7 |
| 20260506072505 | 63 | 191 | 8.0 | 12.0 | 0.00 | 0.00 | 0.00 | 83 | 1013.7 |
| 20260506072006 | 63 | 196 | 4.0 | 10.0 | 0.00 | 0.00 | 0.00 | 84 | 1013.8 |
| 20260506071506 | 63 | 196 | 6.0 | 10.0 | 0.00 | 0.00 | 0.00 | 84 | 1013.8 |
| 20260506071007 | 63 | 185 | 5.0 | 12.0 | 0.00 | 0.00 | 0.00 | 84 | 1013.7 |
| 20260506070508 | 63 | 186 | 6.0 | 12.0 | 0.00 | 0.00 | 0.00 | 84 | 1013.8 |
| 20260506062506 | 62 | 192 | 5.0 | 9.0 | 0.00 | 0.00 | 0.00 | 86 | 1013.6 |
| 20260506062005 | 62 | 214 | 3.0 | 8.0 | 0.00 | 0.00 | 0.00 | 87 | 1013.6 |
| 20260506061507 | 62 | 199 | 6.0 | 10.0 | 0.00 | 0.00 | 0.00 | 87 | 1013.6 |
| 20260506061006 | 62 | 201 | 5.0 | 9.0 | 0.00 | 0.00 | 0.00 | 87 | 1013.6 |
| 20260506060505 | 62 | 191 | 4.0 | 9.0 | 0.00 | 0.00 | 0.00 | 87 | 1013.5 |